{"data":{"norad_id":56066,"intl_designator":"2023-043W","name":"ONEWEB-0577","alt_names":[],"object_type":"PAYLOAD","status":"ACTIVE","operator":null,"country":"UK","launch_date":"2023-03-26","launch_site_code":"SRILR","launch_vehicle":null,"mission":null,"orbit_class":"UNKNOWN","rcs_meters":null,"size_class":null,"mass_kg":null,"dimensions":null,"purposes":["comms"],"wikipedia_slug":null,"has_3d_model":false,"image_url":null,"decayed_at":null,"tle_current":{"epoch":"2026-09-20T03:21:48.265344Z","epoch_age_seconds":53098,"freshness":"FRESH","line1":"1 56066U 23043W   26263.14014196  .00000063  00000+0  13011-3 0  9997","line2":"2 56066  87.9157 209.9227 0002620  84.0586 276.0843 13.16594380171485","mean_motion":13.1659438,"eccentricity":0.000262,"inclination_deg":87.9157,"raan_deg":209.9227,"arg_perigee_deg":84.0586,"mean_anomaly_deg":276.0843,"bstar":0.00013011,"rev_number":17148,"period_min":109.37309332887,"perigee_km":1195.7713112357,"apogee_km":1199.74107927,"semimajor_km":7575.8931952528,"source":"CELESTRAK","updated_at":"2026-09-20T09:00:44.790764Z"}}}